This is the latest recevied weather packets stored in our database for station/object 9A3XK-13. If no packets are shown the sender has not sent any weather packets the latest 10 day(s).
| Time | Temp. | Humidity | Pressure | Rain* | Wind** | Luminosity | Snow |
|---|---|---|---|---|---|---|---|
| 1777713017 | 20.56° C | 41% | 1023 hPa | 0 mm | - | 775 W/m² | - |
| 1777712716 | 20.56° C | 47% | 1023.1 hPa | 0 mm | - | 756 W/m² | - |
| 1777712417 | 20.56° C | 42% | 1023.1 hPa | 0 mm | - | 747 W/m² | - |
| 1777712117 | 20° C | 43% | 1023.1 hPa | 0 mm | - | 737 W/m² | - |
| 1777711817 | 20° C | 44% | 1023.1 hPa | 0 mm | - | 733 W/m² | - |
| 1777711517 | 19.44° C | 44% | 1023.2 hPa | 0 mm | - | 723 W/m² | - |
| 1777711217 | 19.44° C | 45% | 1023.2 hPa | 0 mm | - | 715 W/m² | - |
| 1777710917 | 19.44° C | 45% | 1023.2 hPa | 0 mm | - | 706 W/m² | - |
| 1777710616 | 18.89° C | 52% | 1023.3 hPa | 0 mm | - | 695 W/m² | - |
| 1777710316 | 18.89° C | 52% | 1023.3 hPa | 0 mm | - | 687 W/m² | - |
| 1777710016 | 18.89° C | 52% | 1023.3 hPa | 0 mm | - | 673 W/m² | - |
| 1777709716 | 18.89° C | 52% | 1023.3 hPa | 0 mm | - | 665 W/m² | - |
| 1777709416 | 18.89° C | 53% | 1023.4 hPa | 0 mm | - | 655 W/m² | - |
| 1777709117 | 18.33° C | 55% | 1023.4 hPa | 0 mm | - | 643 W/m² | - |
| 1777708816 | 17.78° C | 54% | 1023.4 hPa | 0 mm | - | 633 W/m² | - |
| 1777708516 | 17.78° C | 55% | 1023.4 hPa | 0 mm | - | 622 W/m² | - |
| 1777708216 | 17.78° C | 55% | 1023.4 hPa | 0 mm | - | 612 W/m² | - |
| 1777707916 | 17.22° C | 56% | 1023.4 hPa | 0 mm | - | 598 W/m² | - |
| 1777707616 | 16.67° C | 57% | 1023.4 hPa | 0 mm | - | 586 W/m² | - |
| 1777707316 | 16.67° C | 57% | 1023.4 hPa | 0 mm | - | 572 W/m² | - |
| 1777707017 | 16.11° C | 59% | 1023.5 hPa | 0 mm | - | 563 W/m² | - |
| 1777706717 | 16.11° C | 57% | 1023.5 hPa | 0 mm | - | 550 W/m² | - |
| 1777706416 | 16.11° C | 57% | 1023.5 hPa | 0 mm | - | 538 W/m² | - |
| 1777706117 | 16.11° C | 58% | 1023.6 hPa | 0 mm | - | 523 W/m² | - |
| 1777705816 | 15.56° C | 59% | 1023.6 hPa | 0 mm | - | 510 W/m² | - |
* Rain latest hour (hover to see other rain measurements)
** Current wind speed in m/s (hover to see current wind gust speed)